SL-8 R/B

Satellite information

Favourite Embed

Satellite Type and Status

ROCKET BODYIN ORBIT

Key statistics

Satellite SL-8 R/B at a glance.

Uptime

15519

Days in orbit

Revolutions

≈ 14.4

Per day

Orbit

LEO

Low Earth Orbit

Inclination

74.0

Latest

Satellite identification and parameters

Extended collection of information and parameters for SL-8 R/B.

Object identification

Identified? True

Debris? False

Object name: SL-8 R/B

International designator: 1982-109B

Object number (NORAD): 13649

Object ID (CCSDS): 13649

Country: COMMONWEALTH OF INDEPENDENT STATES (CIS)

Current information (Y/N): Y

RCS size: LARGE

Orbital parameters

Period: 100.111 minutes

Inclination: 73.9983 deg

SMA: 7141.909 km

Apoapsis: 777.577 km

Periapsis: 749.971 km

RAAN: 99.3565 deg

Eccentricy: 0.0019327

Argument of periapsis: 297.6672 deg

Mean anomaly: 175.0695 deg

Mean motion: 14.38405295 rev/day

Mean motion (dot): 0.00000343 rev/day2

B* drag term: 0.00012087 1/REarth

Two-line elements (TLE)

Creation date: May 8, 2025, 3:01 a.m.

Reference frame: TEME

Reference center: EARTH

Epoch: May 7, 2025, 9:30 a.m. UTC

TLE line 0: 0 SL-8 R/B

TLE line 1: 1 13649U 82109B 25127.39583804 .00000343 00000-0 12087-3 0 9991

TLE line 2: 2 13649 73.9983 99.3565 0019327 297.6672 175.0695 14.38405295225320

Live tracking on map

Real-time ground track for satellite SL-8 R/B.

In-orbit conjunctions

A list of the most updated potential collisions computed for object SL-8 R/B.

Target Orbit TCA Probability of collision Miss distance Type
CZ-6A DEB LEO 2025-02-05 23:20:38 0.0004398505 217.0 (m) DEBRIS
NOAA 16 DEB SSO 2024-08-16 02:59:42 0.0001577523 889.0 (m) DEBRIS
SL-8 R/B LEO 2024-06-12 08:48:44 0.0001804504 123.0 (m) ROCKET BODY

Associated space launch

Military communications satellite

SL-8 R/B was lifted into orbit during the mission ‘Kosmos-3M | Strela-2M 30’, on board a Kosmos-3M space rocket.

The launch took place on Nov. 11, 1982, 6:14 a.m. from 132/1 (132L).

For more information about the launch, click the button.

Launch to space Kosmos-3M | Strela-2M 30
Kosmos-3M | Strela-2M 30

Agency: N/A

Status: Launch Successful

Launch date: Nov. 11, 1982, 6:14 a.m. UTC

Rocket: Kosmos-3M

Launch pad: 132/1 (132L)

Location: Plesetsk Cosmodrome, Russian Federation

...

Latest news about this satellite

There are no fresh news available about this satellite. Check back as we update our databases every day.


Newsletter sign-up

Weekly statistics, charts and insights to help you stay on top of the space industry.